Weather History for Curacao, Curacao

Change the Weather History Date:

Wednesday, December 5, 2012

  Actual Average Record
Temperature  
Mean Temperature 78 °F -  
Max Temperature 84 °F 84 °F 91 °F (2000)
Min Temperature 72 °F 75 °F 72 °F (2012)
Cooling Degree Days 13    
Growing Degree Days 28 (Base 50)    
Moisture  
Dew Point 73 °F    
Average Humidity 82    
Maximum Humidity 94    
Minimum Humidity 68    
Precipitation  
Precipitation 0.08 in 0.12 in - ()
Sea Level Pressure  
Sea Level Pressure 29.87 in    
Wind  
Wind Speed 3 mph ()    
Max Wind Speed 8 mph    
Max Gust Speed -    
Visibility 6.2 miles    
Events Rain    
Averages and records for this station are not official NWS values.
T = Trace of Precipitation, MM = Missing Value Source: Averaged Metar Reports

Daily Weather History Graph

Daily Weather History Graph

Search for Another Location

Airport:

Trip Planner

Search our weather history database for the weather conditions in past years. The results will help you decide how hot, cold, wet, or windy it might be!

Date:

Astronomy

Dec. 05, 2012 Rise Set
Actual Time 6:43 AM AST 6:09 PM AST
Civil Twilight 6:20 AM AST 6:32 PM AST
Nautical Twilight 5:54 AM AST 6:59 PM AST
Astronomical Twilight 5:28 AM AST 7:25 PM AST
Moon No Moon Rise 11:50 AM AST (12/5)
Length of Visible Light 12h 12m
Length of Day
11h 26m
Waning Gibbous, 60% of the Moon is Illuminated
Dec 5
Waning Gibbous
Dec 6
Last Quarter
Dec 13
New
Dec 20
First Quarter
Dec 28
Full

Hourly Weather History & Observations

Time (AST) Temp. Heat Index Dew Point Humidity Pressure Visibility Wind Dir Wind Speed Gust Speed Precip Events Conditions
12:00 AM 77.0 °F - 71.6 °F 83% 29.92 in 6.2 mi Variable 2.3 mph - N/A   Scattered Clouds
1:00 AM 75.2 °F - 71.6 °F 89% 29.89 in 6.2 mi Variable 3.5 mph - N/A   Scattered Clouds
2:00 AM 75 °F - 72 °F 88% 29.88 in 31 mi SE 3.5 mph - -   Partly Cloudy
2:00 AM 75.2 °F - 71.6 °F 89% 29.86 in 6.2 mi SE 3.5 mph - N/A   Scattered Clouds
3:00 AM 73.4 °F - 71.6 °F 94% 29.86 in 6.2 mi SE 2.3 mph - N/A   Scattered Clouds
4:00 AM 73.4 °F - 71.6 °F 94% 29.86 in 6.2 mi SE 3.5 mph - N/A   Scattered Clouds
5:00 AM 73 °F - 71 °F 91% 29.86 in 31 mi 1.2 mph - -   Partly Cloudy
5:00 AM 73.4 °F - 71.6 °F 94% 29.86 in 6.2 mi Variable 1.2 mph - N/A   Scattered Clouds
6:00 AM 73.4 °F - 71.6 °F 94% 29.86 in 6.2 mi Variable 1.2 mph - N/A   Scattered Clouds
7:00 AM 73.4 °F - 71.6 °F 94% 29.89 in 6.2 mi South 1.2 mph - N/A   Scattered Clouds
8:00 AM 78 °F - 75 °F 86% 29.91 in 37 mi ESE 3.5 mph - - Rain Light Rain Showers
8:00 AM 77.0 °F - 73.4 °F 89% 29.89 in 6.2 mi Variable 3.5 mph - N/A   Scattered Clouds
11:00 AM 83 °F - 74 °F 68% 29.94 in 37 mi ENE 6.9 mph - -   Partly Cloudy
11:00 AM 82.4 °F 88.2 °F 73.4 °F 74% 29.92 in 6.2 mi ENE 6.9 mph - N/A   Scattered Clouds
12:00 PM 84.2 °F 90.9 °F 73.4 °F 70% 29.92 in 6.2 mi ENE 5.8 mph - N/A   Scattered Clouds
1:00 PM 80.6 °F 84.6 °F 71.6 °F 74% 29.89 in 6.2 mi Variable 2.3 mph - N/A   Scattered Clouds
2:00 PM 77.0 °F - 73.4 °F 89% 29.86 in 6.2 mi Variable 6.9 mph - N/A   Scattered Clouds
3:00 PM 82.4 °F 87.2 °F 71.6 °F 70% 29.83 in 6.2 mi ESE 6.9 mph - N/A   Scattered Clouds
4:00 PM 84.2 °F 90.9 °F 73.4 °F 70% 29.80 in 6.2 mi East 6.9 mph - N/A   Scattered Clouds
6:00 PM 82.4 °F 87.2 °F 71.6 °F 70% 29.83 in 6.2 mi East 5.8 mph - N/A   Partly Cloudy
7:00 PM 80.6 °F 85.4 °F 73.4 °F 79% 29.83 in 6.2 mi East 6.9 mph - N/A   Partly Cloudy
8:00 PM 80.6 °F 85.4 °F 73.4 °F 79% 29.83 in 6.2 mi East 5.8 mph - N/A   Partly Cloudy
9:00 PM 80.6 °F 85.4 °F 73.4 °F 79% 29.86 in 6.2 mi ESE 6.9 mph - N/A   Partly Cloudy
10:00 PM 80.6 °F 85.4 °F 73.4 °F 79% 29.86 in 6.2 mi ESE 3.5 mph - N/A   Partly Cloudy
11:00 PM 80 °F - 74 °F 76% 29.88 in 31 mi East 6.9 mph - -   Scattered Clouds
11:00 PM 80.6 °F 85.4 °F 73.4 °F 79% 29.86 in 6.2 mi East 8.1 mph - N/A   Partly Cloudy